{"data":{"norad_id":67568,"intl_designator":"2026-016H","name":"STARLINK-36435","alt_names":[],"object_type":"PAYLOAD","status":"ACTIVE","operator":null,"country":"US","launch_date":"2026-01-25","launch_site_code":"AFWTR","launch_vehicle":null,"mission":null,"orbit_class":"UNKNOWN","rcs_meters":null,"size_class":null,"mass_kg":null,"dimensions":null,"purposes":["comms"],"wikipedia_slug":null,"has_3d_model":false,"image_url":null,"decayed_at":null,"tle_current":{"epoch":"2026-05-25T03:03:16.274016Z","epoch_age_seconds":64392,"freshness":"FRESH","line1":"1 67568U 26016H   26145.12727169  .00016535  00000+0  51323-3 0  9996","line2":"2 67568  97.2846 205.5378 0000618  57.2633 302.8669 15.33455409 18586","mean_motion":15.33455409,"eccentricity":6.18e-5,"inclination_deg":97.2846,"raan_deg":205.5378,"arg_perigee_deg":57.2633,"mean_anomaly_deg":302.8669,"bstar":0.00051323,"rev_number":1858,"period_min":93.905567227355,"perigee_km":465.08926727181,"apogee_km":465.93514231353,"semimajor_km":6843.6492047927,"source":"CELESTRAK","updated_at":"2026-05-25T13:38:21.614165Z"}}}